NOAA 16 DEB

Satellite information

Favourite Embed

Satellite Type and Status

DEBRISIN ORBIT

Key statistics

Satellite NOAA 16 DEB at a glance.

Uptime

9055

Days in orbit

Revolutions

≈ 14.4

Per day

Orbit

SSO

Sun Synchronous Orbit

Inclination

98.8

Latest

Satellite identification and parameters

Extended collection of information and parameters for NOAA 16 DEB.

Object identification

Identified? True

Debris? True

Object name: NOAA 16 DEB

International designator: 2000-055KV

Object number (NORAD): 41416

Object ID (CCSDS): 41416

Country: UNITED STATES OF AMERICA (US)

Current information (Y/N): Y

RCS size: SMALL

Orbital parameters

Period: 100.281 minutes

Inclination: 98.7666 deg

SMA: 7149.985 km

Apoapsis: 792.915 km

Periapsis: 750.784 km

RAAN: 288.7659 deg

Eccentricy: 0.0029462

Argument of periapsis: 54.497 deg

Mean anomaly: 305.8957 deg

Mean motion: 14.35969094 rev/day

Mean motion (dot): 0.00004592 rev/day2

B* drag term: 0.0015885 1/REarth

Two-line elements (TLE)

Creation date: July 4, 2025, 6:39 p.m.

Reference frame: TEME

Reference center: EARTH

Epoch: July 4, 2025, 12:18 p.m. UTC

TLE line 0: 0 NOAA 16 DEB

TLE line 1: 1 41416U 00055KV 25185.51271890 .00004592 00000-0 15885-2 0 9999

TLE line 2: 2 41416 98.7666 288.7659 0029462 54.4970 305.8957 14.35969094484842

Live tracking on map

Real-time ground track for satellite NOAA 16 DEB.

In-orbit conjunctions

A list of the most updated potential collisions computed for object NOAA 16 DEB.

Target Orbit TCA Probability of collision Miss distance Type
COSMOS 2251 DEB LEO 2025-03-07 09:02:02 0.0001373057 187.0 (m) DEBRIS
CZ-6A DEB LEO 2025-02-26 01:18:36 0.0001681469 256.0 (m) DEBRIS
CZ-6A DEB LEO 2025-01-02 08:29:39 0.000227343 721.0 (m) DEBRIS

Associated space launch

The NOAA K, L and M POES satellites begin the fifth generation of improved environmental monitoring in support of NOAA missions. The instrument payload has significant improvements and additions/deletions. The instrument changes have effected the spacecraft subsystems and data formats.

NOAA 16 DEB was lifted into orbit during the mission ‘Titan II SLV | NOAA 16’, on board a Titan II SLV space rocket.

The launch took place on Sept. 21, 2000, 10:22 a.m. from Space Launch Complex 4W.

For more information about the launch, click the button.

Launch to space Titan II SLV | NOAA 16
Titan II SLV | NOAA 16

Agency: N/A

Status: Launch Successful

Launch date: Sept. 21, 2000, 10:22 a.m. UTC

Rocket: Titan II SLV

Launch pad: Space Launch Complex 4W

Location: Vandenberg SFB, CA, USA

...

Latest news about this satellite

There are no fresh news available about this satellite. Check back as we update our databases every day.


Newsletter sign-up

Weekly statistics, charts and insights to help you stay on top of the space industry.